Regional Weather Roundup
Issued by NWS Midland/Odessa, TX

Home | Current Version | Previous Version | Text Only | Print | Product List | Glossary On
Versions: 1 2 3 4 5 6 7 8 9 10 11 12 13 14 15 16 17 18 19 20 21 22 23 24 25 26 27 28 29 30 31 32 33 34 35 36 37 38 39 40 41 42 43 44 45 46 47 48 49 50
000
ASUS44 KMAF 231410
RWRMAF
MIDLAND AREA WEATHER ROUNDUP
NATIONAL WEATHER SERVICE MIDLAND TX
900 AM CDT WED JUL 23 2014

...IN SOUTHWEST TEXAS AND SOUTHEAST NEW MEXICO...

CITY           SKY/WX    TMP DP  RH WIND       PRES   REMARKS
ALPINE         MOSUNNY   73  60  62 CALM      30.33S
ANDREWS        NOT AVBL
ARTESIA        SUNNY     77  59  53 SE3       30.26R
BIG SPRING     SUNNY     82  61  49 CALM      30.24R
CARLSBAD       SUNNY     82  58  43 N5        30.23R
DRYDEN           N/A     84  65  52 NE10      30.14R
FORT STOCKTON  SUNNY     78  62  57 SE7       30.21R
GUAD PASS      MOSUNNY   76  57  51 NE13      30.37R
HOBBS          SUNNY     75  61  60 E7        30.28R
MARFA          MOSUNNY   72  61  68 N6        30.33R
MIDLAND AIRPK  SUNNY     81  63  52 S6        30.22R
MIDLAND INTL   SUNNY     80  63  55 SE8       30.22R
ODESSA         SUNNY     81  61  50 S5        30.23R
PECOS          SUNNY     78  61  55 E9        30.19R
PRESIDIO       FAIR      82  61  47 NE7       30.16R
SEMINOLE       SUNNY     78  62  56 S3        30.27R
SNYDER         SUNNY     80  65  61 E3        30.22R
WINK           SUNNY     82  62  50 SE12      30.20R
$$
...OTHER STATIONS IN TEXAS...

CITY           SKY/WX    TMP DP  RH WIND       PRES   REMARKS
ABILENE        SUNNY     80  70  71 SE5       30.18R
AMARILLO       SUNNY     77  66  68 SW6       30.30R
AUSTIN         MOSUNNY   83  74  74 CALM      30.08R
BROWNSVILLE    SUNNY     83  79  88 S10       30.04R
CORPUS CHRISTI MOSUNNY   83  77  82 S7        30.05R
DALLAS FTW     MOSUNNY   82  70  66 CALM      30.11R
DEL RIO        SUNNY     83  73  72 SE8       30.08S
EL PASO        MOSUNNY   76  64  66 CALM      30.23R
HOUSTON INT    PTSUNNY   82  75  79 E3        30.07R
LUBBOCK        MOSUNNY   79  65  62 CALM      30.26R
SAN ANGELO     SUNNY     79  66  64 CALM      30.17R
SAN ANTONIO    MOSUNNY   82  76  81 CALM      30.10R
WACO           MOSUNNY   81  72  74 N5        30.10R
WICHITA FALLS  NOT AVBL
$$
...OTHER LOCATIONS IN NEW MEXICO...

CITY           SKY/WX    TMP DP  RH WIND       PRES   REMARKS
ALAMAGORDO     SUNNY     73  63  68 S5        30.28R
ALBUQUERQUE    MOSUNNY   73  55  53 NW6       30.37R
CANNON AFB     NOT AVBL
CLOVIS         NOT AVBL
HOLLOMAN AFB   NOT AVBL
ROSWELL        SUNNY     78  61  55 CALM      30.27R
RUIDOSO        SUNNY     66  55  68 MISG      30.50R
SANTA FE       SUNNY     69  51  52 N6        30.46R
TRUTH OR CONSE SUNNY     75  56  51 NW8       30.31R
TUCUMCARI      MOSUNNY   76  64  66 S3        30.31R
$$


USA.gov is the U.S. government's official web portal to all federal, state and local government web resources and services.